Content
SEND FEEDBACK

Daily
Averages
Monthly
Summary
United States of America

ACHANG BAY, GUAM


Home > North America > United States > Guam
Elevation: 10 meters     Latitude: 13 16N     Longitude: 144 45E

WEATHER
 
SELECT A DAY
Number of Records: 341,794;   Date Range: 1/1/95 - 7/23/14
 
SHARE

PRINT THIS DATA

[ ← Previous Day ]
WEATHER ALMANAC - 3 JANUARY, 2013
[ Next Day → ]
[ °F ]   °C
Weather ElementAverageHighLow
Temperature26.3 °C29 °C (1:00 pm)25 °C (12:33 am)
Dewpoint22.5 °C24 °C (12:33 am)18.5 °C (5:55 pm)
Humidity79.5 %94 % (12:33 am)62 % (5:55 pm)
Barometer1010.5 hPa1011.9 hPa (3:38 am)1007.8 hPa (2:55 pm)
Wind Speed30.7 km/h44.4 km/h (8:28 am)
Wind Gust53.8 km/h (8:28 am)
Weather ElementAverage
Visibility15.9 km
Wind DirectionENE (69.6 °)

Weather ElementTotal
Precipitation0.51 mm
Cooling Degree Days8.7 (Base 18.3)
Growing Degree Days17 (Base 10)
Averaged from 68 records on 3 January, 2013
WEATHER CONDITIONS BREAKOUT
WIND DIRECTION BREAKOUT
WEATHER BY HOUR - 3 JANUARY, 2013
[ °F ]   °C
Local TimeTemperatureDewpointHumidityBarometerVisibilityWind DirectionWind SpeedGust SpeedPrecipitationEventsConditions
12:33 AM25 °C24 °C94 %1011.5 hPa11.3 kmENE (70°)27.8 km/hRainLight Rain
12:34 AM25 °C24 °C94 %1011.5 hPa14.5 kmENE (70°)27.8 km/hMostly Cloudy
12:43 AM25 °C24 °C94 %1011.2 hPa16.1 kmENE (70°)29.6 km/hMostly Cloudy
12:54 AM26 °C24 °C89 %1011.2 hPa16.1 kmEast (80°)37 km/h46.3 km/hMostly Cloudy
12:55 AM25.6 °C23.9 °C90 %1011.2 hPa16.1 kmEast (80°)38.9 km/h46.3 km/h0.51 mmMostly Cloudy
1:01 AM26 °C24 °C89 %1011.2 hPa16.1 kmENE (70°)35.2 km/h46.3 km/hMostly Cloudy
1:07 AM26 °C24 °C89 %1011.2 hPa16.1 kmENE (70°)37 km/hMostly Cloudy
1:08 AM26 °C24 °C89 %1011.2 hPa16.1 kmENE (70°)37 km/hMostly Cloudy
1:10 AM26 °C24 °C89 %1011.2 hPa16.1 kmENE (70°)38.9 km/h48.1 km/hMostly Cloudy
1:19 AM26 °C24 °C89 %1011.2 hPa16.1 kmENE (70°)29.6 km/hMostly Cloudy
1:45 AM26 °C23 °C83 %1011.2 hPa16.1 kmEast (80°)29.6 km/h46.3 km/hScattered Clouds
1:55 AM26 °C23.7 °C87 %1010.8 hPa16.1 kmENE (70°)33.3 km/h42.6 km/hScattered Clouds
2:43 AM26 °C23 °C83 %1010.2 hPa16.1 kmENE (70°)31.5 km/h40.7 km/hMostly Cloudy
2:51 AM26 °C23 °C83 %1010.2 hPa16.1 kmENE (70°)33.3 km/h44.4 km/hMostly Cloudy
2:55 AM26 °C23.2 °C84 %1010.2 hPa16.1 kmENE (70°)27.8 km/h44.4 km/hScattered Clouds
3:10 AM26 °C23 °C83 %1010.2 hPa16.1 kmENE (70°)29.6 km/hMostly Cloudy
3:15 AM26 °C24 °C89 %1010.2 hPa16.1 kmENE (70°)25.9 km/hScattered Clouds
3:38 AM26 °C23 °C83 %1011.9 hPa16.1 kmENE (70°)29.6 km/hMostly Cloudy
3:55 AM26.1 °C23.3 °C84 %1009.8 hPa16.1 kmENE (70°)37 km/h42.6 km/hMostly Cloudy
4:04 AM26 °C23 °C83 %1010.2 hPa16.1 kmENE (70°)29.6 km/hMostly Cloudy
4:55 AM26 °C22.8 °C82 %1010.2 hPa16.1 kmENE (70°)37 km/h44.4 km/hMostly Cloudy
4:58 AM26 °C23 °C83 %1010.2 hPa16.1 kmEast (80°)33.3 km/h46.3 km/hMostly Cloudy
4:59 AM26 °C23 °C83 %1010.2 hPa16.1 kmENE (70°)33.3 km/h46.3 km/hMostly Cloudy
5:00 AM26 °C23 °C83 %1010.2 hPa16.1 kmENE (70°)31.5 km/h46.3 km/hMostly Cloudy
5:55 AM26 °C21.7 °C77 %1010.5 hPa16.1 kmENE (70°)38.9 km/h50.1 km/hPartly Cloudy
6:34 AM26 °C23 °C83 %1010.8 hPa16.1 kmENE (70°)25.9 km/h38.9 km/hMostly Cloudy
6:55 AM26.2 °C22.8 °C81 %1011.2 hPa16.1 kmENE (70°)22.2 km/hOvercast
7:18 AM26 °C23 °C83 %1011.2 hPa16.1 kmENE (60°)25.9 km/h42.6 km/hScattered Clouds
7:21 AM26 °C22 °C78 %1011.2 hPa16.1 kmENE (60°)27.8 km/h42.6 km/hMostly Cloudy
7:25 AM26 °C22 °C78 %1011.2 hPa16.1 kmENE (70°)29.6 km/hScattered Clouds
7:55 AM26.5 °C22.4 °C78 %1011.5 hPa16.1 kmENE (70°)33.3 km/h48.1 km/hScattered Clouds
8:06 AM26 °C23 °C83 %1011.5 hPa14.5 kmENE (70°)29.6 km/h42.6 km/hMostly Cloudy
8:07 AM26 °C23 °C83 %1011.9 hPa14.5 kmENE (70°)33.3 km/h42.6 km/hRainLight Rain
8:16 AM26 °C23 °C83 %1011.5 hPa14.5 kmENE (60°)35.2 km/h42.6 km/hLight Drizzle
8:18 AM26 °C23 °C83 %1011.9 hPa16.1 kmENE (70°)35.2 km/hScattered Clouds
8:28 AM26 °C23 °C83 %1011.9 hPa12.9 kmENE (60°)44.4 km/h53.8 km/hRainLight Rain
8:40 AM25 °C23 °C89 %1011.9 hPa14.5 kmENE (60°)29.6 km/h48.1 km/hMostly Cloudy
8:55 AM25.9 °C22.6 °C82 %1011.9 hPa16.1 kmENE (70°)37 km/h46.3 km/h0 mmMostly Cloudy
9:55 AM27.1 °C22.3 °C75 %1011.9 hPa16.1 kmENE (60°)33.3 km/h42.6 km/hMostly Cloudy
10:55 AM28 °C23.1 °C75 %1011.2 hPa16.1 kmENE (60°)35.2 km/h42.6 km/hScattered Clouds
11:35 AM28 °C23 °C74 %1010.8 hPa16.1 kmENE (70°)27.8 km/hMostly Cloudy
11:37 AM28 °C23 °C74 %1010.8 hPa16.1 kmEast (80°)33.3 km/h40.7 km/hScattered Clouds
11:38 AM28 °C23 °C74 %1010.8 hPa16.1 kmENE (70°)33.3 km/h40.7 km/hMostly Cloudy
11:55 AM28.4 °C23.3 °C74 %1010.5 hPa16.1 kmEast (80°)31.5 km/hMostly Cloudy
12:18 PM28 °C23 °C74 %1010.2 hPa16.1 kmENE (60°)31.5 km/h40.7 km/hScattered Clouds
12:55 PM28.7 °C22.4 °C69 %1009.5 hPa16.1 kmENE (60°)35.2 km/h42.6 km/hScattered Clouds
1:00 PM29 °C22 °C66 %1009.5 hPa16.1 kmENE (60°)37 km/h48.1 km/hMostly Cloudy
1:11 PM28 °C22 °C70 %1009.5 hPa16.1 kmENE (60°)33.3 km/h48.1 km/hMostly Cloudy
1:55 PM28.5 °C22 °C68 %1008.8 hPa16.1 kmENE (60°)31.5 km/h42.6 km/hScattered Clouds
2:55 PM28.4 °C20.8 °C63 %1007.8 hPa16.1 kmEast (80°)33.3 km/h44.4 km/hPartly Cloudy
3:55 PM27.9 °C20.8 °C65 %1007.8 hPa16.1 kmENE (70°)27.8 km/hScattered Clouds
4:55 PM26.8 °C19.5 °C64 %1007.8 hPa16.1 kmENE (60°)27.8 km/hPartly Cloudy
5:55 PM26.3 °C18.5 °C62 %1008.5 hPa16.1 kmEast (80°)25.9 km/h40.7 km/hScattered Clouds
6:55 PM26.1 °C20.3 °C70 %1008.5 hPa16.1 kmEast (80°)33.3 km/h40.7 km/hPartly Cloudy
7:55 PM25.8 °C21.1 °C75 %1009.1 hPa16.1 kmENE (70°)31.5 km/h38.9 km/hPartly Cloudy
8:55 PM25.7 °C20.9 °C75 %1009.5 hPa16.1 kmENE (70°)27.8 km/hPartly Cloudy
9:27 PM26 °C21 °C74 %1009.8 hPa16.1 kmENE (70°)27.8 km/hMostly Cloudy
9:38 PM26 °C21 °C74 %1009.8 hPa16.1 kmENE (70°)25.9 km/hScattered Clouds
9:55 PM25.9 °C21.5 °C77 %1009.8 hPa16.1 kmENE (70°)27.8 km/hScattered Clouds
10:49 PM26 °C22 °C78 %1009.5 hPa16.1 kmENE (60°)20.4 km/hMostly Cloudy
10:52 PM26 °C22 °C78 %1009.5 hPa16.1 kmENE (70°)24.1 km/hScattered Clouds
10:55 PM25.6 °C21.6 °C78 %1009.5 hPa16.1 kmENE (70°)20.4 km/hMostly Cloudy
10:57 PM26 °C22 °C78 %1009.5 hPa16.1 kmENE (60°)24.1 km/hScattered Clouds
11:28 PM26 °C22 °C78 %1009.1 hPa16.1 kmENE (70°)24.1 km/hMostly Cloudy
11:31 PM26 °C21 °C74 %1009.1 hPa16.1 kmENE (70°)25.9 km/hMostly Cloudy
11:44 PM26 °C21 °C74 %1009.1 hPa16.1 kmEast (80°)22.2 km/hMostly Cloudy
11:45 PM26 °C22 °C78 %1009.1 hPa16.1 kmEast (80°)22.2 km/hScattered Clouds
11:55 PM25.5 °C21.5 °C78 %1009.1 hPa16.1 kmEast (80°)22.2 km/hPartly Cloudy
Hourly data recorded from PGUA, located 0 kilometers away from Achang Bay, Guam







STORIES FROM OUR PARTNERS